Weather History for 16531 - August, 2013

Change the Weather History Date:

Sunday, August 11, 2013

  Actual Average Record
Temperature  
Mean Temperature 78 °F -  
Max Temperature 87 °F 83 °F - ()
Min Temperature 69 °F 63 °F - ()
Cooling Degree Days 13    
Growing Degree Days 28 (Base 50)    
Moisture  
Dew Point 65 °F    
Average Humidity 63    
Maximum Humidity 88    
Minimum Humidity 45    
Precipitation  
Precipitation 0.00 in 0.04 in - ()
Sea Level Pressure  
Sea Level Pressure 29.98 in    
Wind  
Wind Speed 8 mph ()    
Max Wind Speed 14 mph    
Max Gust Speed -    
Visibility 6.2 miles    
Events      
T = Trace of Precipitation, MM = Missing Value Source: Averaged Metar Reports

Daily Weather History Graph

Daily Weather History Graph

Search for Another Location

Airport or City:

Trip Planner

Search our weather history database for the weather conditions in past years. The results will help you decide how hot, cold, wet, or windy it might be!

Date:

Astronomy

Aug. 11, 2013 Rise Set
Actual Time 6:27 AM CEST 8:25 PM CEST
Civil Twilight 5:58 AM CEST 8:55 PM CEST
Nautical Twilight 5:21 AM CEST 9:31 PM CEST
Astronomical Twilight 4:42 AM CEST 10:10 PM CEST
Moon 11:01 AM CEST (8/11) 10:28 PM CEST (8/11)
Length of Visible Light 14h 57m
Length of Day
13h 57m
Waxing Crescent, 19% of the Moon is Illuminated
Aug 11
Waxing Crescent
Aug 14
First Quarter
Aug 21
Full
Aug 28
Last Quarter
Sep 5
New

Hourly Weather History & Observations

Time (CEST) Temp. Heat Index Dew Point Humidity Pressure Visibility Wind Dir Wind Speed Gust Speed Precip Events Conditions
12:20 AM 77.0 °F - 66.2 °F 69% 29.98 in - WSW 11.5 mph - N/A   Clear
12:50 AM 75.2 °F - 66.2 °F 73% 29.98 in - WSW 11.5 mph - N/A   Clear
1:20 AM 75.2 °F - 66.2 °F 73% 29.98 in - WSW 8.1 mph - N/A   Clear
1:50 AM 75.2 °F - 66.2 °F 73% 29.98 in - WSW 8.1 mph - N/A   Clear
2:20 AM 75.2 °F - 66.2 °F 73% 29.98 in - WSW 9.2 mph - N/A   Clear
2:50 AM 73.4 °F - 66.2 °F 78% 29.98 in - WSW 9.2 mph - N/A   Clear
3:20 AM 73.4 °F - 66.2 °F 78% 29.98 in - WSW 8.1 mph - N/A   Clear
3:50 AM 71.6 °F - 66.2 °F 83% 29.98 in - SW 5.8 mph - N/A   Clear
4:20 AM 71.6 °F - 66.2 °F 83% 29.98 in - SW 6.9 mph - N/A   Clear
4:50 AM 71.6 °F - 66.2 °F 83% 29.98 in - SW 6.9 mph - N/A   Clear
5:20 AM 69.8 °F - 66.2 °F 88% 29.98 in - SW 5.8 mph - N/A   Clear
5:50 AM 71.6 °F - 66.2 °F 83% 29.98 in - SSW 6.9 mph - N/A   Clear
6:20 AM 69.8 °F - 66.2 °F 88% 29.98 in - SSW 5.8 mph - N/A   Clear
6:50 AM 69.8 °F - 66.2 °F 88% 29.98 in - SW 6.9 mph - N/A   Clear
7:20 AM 71.6 °F - 66.2 °F 83% 29.98 in - SW 4.6 mph - N/A   Clear
7:50 AM 73.4 °F - 66.2 °F 78% 29.98 in - SW 8.1 mph - N/A   Clear
8:20 AM 77.0 °F - 66.2 °F 69% 29.98 in - SW 9.2 mph - N/A   Clear
8:50 AM 78.8 °F - 66.2 °F 65% 29.98 in - SW 10.4 mph - N/A   Clear
9:20 AM 80.6 °F 82.3 °F 64.4 °F 58% 29.98 in - SW 4.6 mph - N/A   Clear
9:50 AM 82.4 °F 83.9 °F 64.4 °F 54% 29.98 in - WNW 3.5 mph - N/A   Clear
10:20 AM 84.2 °F 85.6 °F 64.4 °F 51% 30.01 in - WNW 4.6 mph - N/A   Clear
10:50 AM 84.2 °F 86.6 °F 66.2 °F 55% 30.01 in - East 5.8 mph - N/A   Clear
11:20 AM 84.2 °F 87.3 °F 68.0 °F 58% 30.01 in 6.2 mi NE 11.5 mph - N/A   Partly Cloudy
11:50 AM 84.2 °F 86.6 °F 66.2 °F 55% 30.01 in 6.2 mi ENE 12.7 mph - N/A   Partly Cloudy
12:20 PM 86.0 °F 87.3 °F 64.4 °F 48% 29.98 in 6.2 mi NE 13.8 mph - N/A   Partly Cloudy
12:50 PM 86.0 °F 88.2 °F 66.2 °F 51% 29.98 in 6.2 mi NE 12.7 mph - N/A   Partly Cloudy
1:20 PM 87.8 °F 89.4 °F 64.4 °F 46% 29.98 in 6.2 mi NE 11.5 mph - N/A   Partly Cloudy
1:50 PM 86.0 °F 88.2 °F 66.2 °F 51% 29.98 in 6.2 mi ENE 11.5 mph - N/A   Partly Cloudy
2:20 PM 86.0 °F 88.2 °F 66.2 °F 51% 29.98 in 6.2 mi ENE 11.5 mph - N/A   Partly Cloudy
2:50 PM 86.0 °F 89.4 °F 68.0 °F 55% 29.98 in 6.2 mi ENE 11.5 mph - N/A   Partly Cloudy
3:20 PM 86.0 °F 89.4 °F 68.0 °F 55% 29.98 in 6.2 mi ENE 11.5 mph - N/A   Partly Cloudy
3:50 PM 86.0 °F 89.4 °F 68.0 °F 55% 29.98 in 6.2 mi ENE 10.4 mph - N/A   Partly Cloudy
4:20 PM 86.0 °F 88.2 °F 66.2 °F 51% 29.98 in - NE 9.2 mph - N/A   Clear
4:50 PM 86.0 °F 87.3 °F 64.4 °F 48% 29.95 in - ENE 8.1 mph - N/A   Clear
5:20 PM 86.0 °F 87.3 °F 64.4 °F 48% 29.95 in - ENE 9.2 mph - N/A   Clear
5:50 PM 86.0 °F 86.6 °F 62.6 °F 45% 29.95 in - NE 9.2 mph - N/A   Clear
6:20 PM 84.2 °F 85.6 °F 64.4 °F 51% 29.95 in - ENE 8.1 mph - N/A   Clear
6:50 PM 84.2 °F 86.6 °F 66.2 °F 55% 29.95 in - ENE 9.2 mph - N/A   Clear
7:20 PM 82.4 °F 83.9 °F 64.4 °F 54% 29.95 in - ENE 6.9 mph - N/A   Clear
7:50 PM 82.4 °F 83.9 °F 64.4 °F 54% 29.95 in - ENE 4.6 mph - N/A   Clear
8:20 PM 78.8 °F - 62.6 °F 57% 29.95 in - ENE 3.5 mph - N/A   Clear
8:50 PM 77.0 °F - 60.8 °F 57% 29.98 in - ENE 2.3 mph - N/A   Clear
9:20 PM 77.0 °F - 62.6 °F 61% 29.98 in - ENE 2.3 mph - N/A   Clear
9:50 PM 75.2 °F - 60.8 °F 61% 29.98 in - Variable 2.3 mph - N/A   Clear
10:20 PM 77.0 °F - 60.8 °F 57% 29.98 in - South 3.5 mph - N/A   Clear
10:50 PM 73.4 °F - 59.0 °F 61% 29.98 in - SSW 5.8 mph - N/A   Clear
11:20 PM 73.4 °F - 59.0 °F 61% 29.98 in - South 3.5 mph - N/A   Clear
11:50 PM 71.6 °F - 59.0 °F 64% 29.98 in - SSW 4.6 mph - N/A   Clear